GW5959 Weather Reports


Display with metric or nautical units.
time (UTC)temp
F
wind
direction
speed
MPH
gust
MPH
rain 1hr
in
rain 24hr
in
rain mn
in
humidity
%
barometer
mb
20260902221108 90 236 11.0 13.0 0.00 0.00 0.00 62 1014.1
20260902220603 91 213 6.0 10.0 0.00 0.00 0.00 63 1014.3
20260902220057 91 249 10.0 13.0 0.00 0.00 0.00 62 1014.2
20260902215554 91 242 7.0 13.0 0.00 0.00 0.00 63 1014.1
20260902215044 91 279 5.0 10.0 0.00 0.00 0.00 64 1014.1
20260902214543 91 246 11.0 14.0 0.00 0.00 0.00 62 1014.2
20260902214042 91 268 7.0 8.0 0.00 0.00 0.00 62 1014.2
20260902213538 0 0.0 0.0 0.00 0.00 0.00 1014.1
20260902213037 91 217 9.0 11.0 0.00 0.00 0.00 61 1014.1
20260902212533 91 217 9.0 11.0 0.00 0.00 0.00 61 1014.0
20260902212029 91 242 6.0 7.0 0.00 0.00 0.00 63 1014.0
20260902211525 91 242 7.0 10.0 0.00 0.00 0.00 62 1014.2
20260902211020 91 234 8.0 14.0 0.00 0.00 0.00 62 1014.2
20260902210520 91 241 9.0 11.0 0.00 0.00 0.00 63 1014.2
20260902210019 91 243 6.0 13.0 0.00 0.00 0.00 62 1014.0
20260902205514 91 221 9.0 10.0 0.00 0.00 0.00 60 1014.1
20260902205009 91 232 7.0 10.0 0.00 0.00 0.00 60 1014.3
20260902204509 91 258 12.0 16.0 0.00 0.00 0.00 58 1014.3
20260902204004 91 226 8.0 13.0 0.00 0.00 0.00 61 1014.1
20260902203500 91 250 5.0 13.0 0.00 0.00 0.00 61 1014.5
20260902202958 91 243 6.0 10.0 0.00 0.00 0.00 61 1014.6
20260902202454 91 242 8.0 11.0 0.00 0.00 0.00 61 1014.8
20260902201951 91 224 6.0 8.0 0.00 0.00 0.00 60 1014.5
20260902201446 91 204 10.0 14.0 0.00 0.00 0.00 59 1015.0
20260902200946 91 236 8.0 9.0 0.00 0.00 0.00 60 1014.8
20260902200441 91 238 8.0 11.0 0.00 0.00 0.00 59 1014.8
20260902195936 91 245 6.0 16.0 0.00 0.00 0.00 60 1014.9
20260902195432 91 177 6.0 8.0 0.00 0.00 0.00 62 1014.9
20260902194926 91 259 9.0 10.0 0.00 0.00 0.00 62 1015.2
20260902194425 91 266 10.0 13.0 0.00 0.00 0.00 59 1015.1
20260902193920 91 242 4.0 9.0 0.00 0.00 0.00 60 1015.1
20260902193417 91 257 5.0 9.0 0.00 0.00 0.00 56 1014.9
20260902192915 91 250 6.0 10.0 0.00 0.00 0.00 59 1015.3
20260902192414 91 252 6.0 11.0 0.00 0.00 0.00 59 1015.1
20260902191913 91 259 4.0 10.0 0.00 0.00 0.00 62 1015.2
20260902191409 91 247 13.0 15.0 0.00 0.00 0.00 57 1015.1
20260902190904 91 227 9.0 9.0 0.00 0.00 0.00 58 1015.4
20260902190404 91 237 10.0 15.0 0.00 0.00 0.00 57 1015.5
20260902185900 91 259 10.0 13.0 0.00 0.00 0.00 58 1015.5
20260902185356 91 268 6.0 10.0 0.00 0.00 0.00 58 1015.4
20260902184851 91 280 9.0 13.0 0.00 0.00 0.00 57 1015.6
20260902184346 91 240 5.0 13.0 0.00 0.00 0.00 60 1015.5
20260902183842 90 271 10.0 13.0 0.00 0.00 0.00 59 1015.6
20260902183338 91 291 8.0 14.0 0.00 0.00 0.00 58 1015.6
20260902182834 91 284 9.0 11.0 0.00 0.00 0.00 58 1015.8
20260902182330 91 258 6.0 11.0 0.00 0.00 0.00 59 1015.7
20260902181826 91 239 8.0 9.0 0.00 0.00 0.00 60 1015.8
20260902181321 90 224 7.0 10.0 0.00 0.00 0.00 57 1015.8
20260902180815 90 255 13.0 15.0 0.00 0.00 0.00 58 1015.7
20260902180311 90 246 7.0 15.0 0.00 0.00 0.00 60 1015.8
20260902175807 91 228 9.0 14.0 0.00 0.00 0.00 56 1015.7
20260902175307 90 261 9.0 11.0 0.00 0.00 0.00 60 1015.9
20260902174757 90 243 9.0 11.0 0.00 0.00 0.00 59 1016.3
20260902174253 90 277 10.0 11.0 0.00 0.00 0.00 59 1016.2
20260902173749 91 262 5.0 9.0 0.00 0.00 0.00 61 1016.1
20260902173243 90 259 4.0 8.0 0.00 0.00 0.00 63 1016.4
20260902172738 90 259 5.0 10.0 0.00 0.00 0.00 62 1016.5
20260902172237 90 261 6.0 9.0 0.00 0.00 0.00 64 1016.4
20260902171732 90 299 6.0 10.0 0.00 0.00 0.00 61 1016.3
20260902171227 90 252 7.0 8.0 0.00 0.00 0.00 62 1016.2
20260902170724 90 277 6.0 8.0 0.00 0.00 0.00 66 1016.5
20260902170219 90 287 4.0 9.0 0.00 0.00 0.00 62 1016.4
20260902165714 90 261 6.0 9.0 0.00 0.00 0.00 64 1016.1
20260902165209 89 250 5.0 9.0 0.00 0.00 0.00 65 1016.5
20260902164709 90 255 5.0 10.0 0.00 0.00 0.00 65 1016.4
20260902164209 89 290 7.0 9.0 0.00 0.00 0.00 63 1016.5
20260902163703 89 282 6.0 7.0 0.00 0.00 0.00 65 1016.6
20260902163203 89 285 7.0 10.0 0.00 0.00 0.00 63 1016.9
20260902162702 89 270 8.0 9.0 0.00 0.00 0.00 62 1016.9
20260902162156 89 267 5.0 9.0 0.00 0.00 0.00 66 1016.8
20260902161652 89 266 5.0 7.0 0.00 0.00 0.00 68 1016.6
20260902161147 88 284 7.0 9.0 0.00 0.00 0.00 64 1016.8
20260902160644 88 267 8.0 8.0 0.00 0.00 0.00 65 1016.6
20260902160138 88 281 7.0 10.0 0.00 0.00 0.00 64 1016.8
20260902155637 88 262 8.0 10.0 0.00 0.00 0.00 67 1016.8
20260902155135 88 260 6.0 8.0 0.00 0.00 0.00 67 1016.8
20260902154631 88 268 7.0 9.0 0.00 0.00 0.00 66 1016.6
20260902154126 88 275 4.0 8.0 0.00 0.00 0.00 69 1016.5
20260902153625 87 287 5.0 7.0 0.00 0.00 0.00 67 1016.6
20260902153120 87 267 6.0 7.0 0.00 0.00 0.00 70 1016.4
20260902152616 87 276 4.0 8.0 0.00 0.00 0.00 69 1016.4
20260902152112 87 222 6.0 7.0 0.00 0.00 0.00 69 1016.5
20260902151607 87 269 3.0 6.0 0.00 0.00 0.00 72 1016.5
20260902151107 86 270 4.0 7.0 0.00 0.00 0.00 70 1016.7
20260902150603 86 291 6.0 13.0 0.00 0.00 0.00 68 1016.8
20260902150058 86 251 7.0 9.0 0.00 0.00 0.00 69 1016.5
20260902145557 86 282 5.0 7.0 0.00 0.00 0.00 70 1016.4
20260902145057 86 286 2.0 8.0 0.00 0.00 0.00 73 1016.4
20260902144555 85 275 7.0 9.0 0.00 0.00 0.00 70 1016.6
20260902144054 85 288 5.0 7.0 0.00 0.00 0.00 70 1016.7
20260902143550 85 285 10.0 13.0 0.00 0.00 0.00 69 1016.9
20260902143045 85 285 6.0 8.0 0.00 0.00 0.00 73 1016.7
20260902142543 84 273 6.0 8.0 0.00 0.00 0.00 71 1016.7
20260902142036 84 279 6.0 10.0 0.00 0.00 0.00 72 1016.4
20260902141536 84 266 4.0 7.0 0.00 0.00 0.00 75 1016.7
20260902141032 84 275 6.0 7.0 0.00 0.00 0.00 74 1016.6
20260902140532 83 321 4.0 6.0 0.00 0.00 0.00 74 1016.4
20260902140027 83 274 4.0 7.0 0.00 0.00 0.00 75 1016.7
20260902135526 83 275 6.0 7.0 0.00 0.00 0.00 74 1016.5
20260902135021 82 280 4.0 6.0 0.00 0.00 0.00 77 1016.5
20260902134518 81 262 4.0 8.0 0.00 0.00 0.00 77 1016.6
20260902134017 81 277 4.0 9.0 0.00 0.00 0.00 76 1016.7
20260902133512 81 256 4.0 7.0 0.00 0.00 0.00 77 1016.6
20260902133012 81 277 6.0 9.0 0.00 0.00 0.00 78 1016.7
20260902132507 80 273 4.0 6.0 0.00 0.00 0.00 79 1016.4
20260902132002 80 251 2.0 6.0 0.00 0.00 0.00 81 1016.7
20260902131459 80 262 4.0 6.0 0.00 0.00 0.00 81 1016.7
20260902130958 79 251 4.0 6.0 0.00 0.00 0.00 82 1016.5
20260902130454 79 259 4.0 7.0 0.00 0.00 0.00 82 1016.6
20260902125949 78 248 5.0 7.0 0.00 0.00 0.00 82 1016.5
20260902125445 78 253 6.0 8.0 0.00 0.00 0.00 83 1016.5
20260902124941 78 242 4.0 7.0 0.00 0.00 0.00 83 1016.6
20260902124437 77 261 6.0 7.0 0.00 0.00 0.00 83 1016.5
20260902123932 77 255 3.0 6.0 0.00 0.00 0.00 84 1016.5
20260902123428 77 279 3.0 4.0 0.00 0.00 0.00 84 1016.5
20260902122926 76 267 3.0 4.0 0.00 0.00 0.00 85 1016.7
20260902122422 76 272 3.0 6.0 0.00 0.00 0.00 85 1016.6
20260902121918 76 257 3.0 6.0 0.00 0.00 0.00 85 1016.5
20260902121412 76 262 3.0 4.0 0.00 0.00 0.00 86 1016.7
20260902120907 75 239 2.0 4.0 0.00 0.00 0.00 86 1016.4
20260902120404 75 255 2.0 3.0 0.00 0.00 0.00 87 1016.4
20260902115903 75 255 2.0 4.0 0.00 0.00 0.00 86 1016.4
20260902115359 75 251 2.0 4.0 0.00 0.00 0.00 86 1016.5
20260902114856 74 247 2.0 4.0 0.00 0.00 0.00 86 1016.3
20260902114351 74 257 3.0 3.0 0.00 0.00 0.00 87 1016.3
20260902113851 74 240 2.0 3.0 0.00 0.00 0.00 86 1016.5
20260902113347 74 250 3.0 4.0 0.00 0.00 0.00 86 1016.2
20260902112846 74 231 3.0 4.0 0.00 0.00 0.00 87 1016.2
20260902112343 74 240 3.0 6.0 0.00 0.00 0.00 86 1016.1
20260902111838 74 217 3.0 4.0 0.00 0.00 0.00 87 1016.1
20260902111335 74 236 3.0 4.0 0.00 0.00 0.00 87 1016.1
20260902110830 74 222 2.0 4.0 0.00 0.00 0.00 86 1016.1
20260902110326 74 231 3.0 4.0 0.00 0.00 0.00 86 1015.9
20260902105825 74 227 3.0 6.0 0.00 0.00 0.00 87 1016.0
20260902105320 74 211 3.0 3.0 0.00 0.00 0.00 87 1015.7
20260902104815 74 204 3.0 3.0 0.00 0.00 0.00 88 1015.9
20260902104312 74 193 2.0 3.0 0.00 0.00 0.00 88 1015.9
20260902103811 74 196 2.0 2.0 0.00 0.00 0.00 87 1016.0
20260902103306 74 198 1.0 4.0 0.00 0.00 0.00 87 1015.9
20260902102801 74 203 2.0 2.0 0.00 0.00 0.00 87 1015.6
20260902102259 75 204 1.0 2.0 0.00 0.00 0.00 86 1015.7
20260902101754 75 185 2.0 3.0 0.00 0.00 0.00 86 1015.7
20260902101249 75 219 2.0 3.0 0.00 0.00 0.00 86 1015.7
20260902100749 75 241 4.0 4.0 0.00 0.00 0.00 85 1015.8
20260902100249 76 201 4.0 6.0 0.00 0.00 0.00 85 1015.5
20260902095744 76 204 3.0 7.0 0.00 0.00 0.00 85 1015.7
20260902095243 76 225 3.0 6.0 0.00 0.00 0.00 85 1015.5
20260902094738 76 224 4.0 4.0 0.00 0.00 0.00 85 1015.6
20260902094235 76 217 2.0 4.0 0.00 0.00 0.00 85 1015.6
20260902093733 76 252 3.0 4.0 0.00 0.00 0.00 86 1015.6
20260902093229 76 225 3.0 3.0 0.00 0.00 0.00 86 1015.7
20260902092728 76 220 2.0 3.0 0.00 0.00 0.00 86 1015.8
20260902092224 76 221 1.0 3.0 0.00 0.00 0.00 86 1015.6
20260902091723 76 252 2.0 3.0 0.00 0.00 0.00 86 1015.6
20260902091220 76 220 2.0 2.0 0.00 0.00 0.00 86 1015.6
20260902090716 76 221 1.0 2.0 0.00 0.00 0.00 86 1015.5
20260902090214 76 212 2.0 3.0 0.00 0.00 0.00 85 1015.5
20260902085709 76 219 2.0 3.0 0.00 0.00 0.00 85 1015.8
20260902085204 76 242 2.0 3.0 0.00 0.00 0.00 85 1015.6
20260902084701 76 238 2.0 3.0 0.00 0.00 0.00 85 1015.7
20260902084157 76 230 2.0 2.0 0.00 0.00 0.00 85 1015.6
20260902083651 76 227 2.0 3.0 0.00 0.00 0.00 85 1015.5
20260902083151 77 224 2.0 4.0 0.00 0.00 0.00 85 1015.5
20260902082646 76 218 4.0 6.0 0.00 0.00 0.00 86 1015.6
20260902082143 77 216 2.0 4.0 0.00 0.00 0.00 86 1015.3
20260902081639 77 237 3.0 3.0 0.00 0.00 0.00 86 1015.6
20260902081139 77 238 3.0 6.0 0.00 0.00 0.00 86 1015.5
20260902080635 77 241 4.0 4.0 0.00 0.00 0.00 86 1015.6
20260902080132 77 245 2.0 4.0 0.00 0.00 0.00 86 1015.5
20260902075631 76 255 3.0 3.0 0.00 0.00 0.00 87 1015.5
20260902075127 77 241 2.0 4.0 0.00 0.00 0.00 87 1015.3
20260902074622 76 215 4.0 4.0 0.00 0.00 0.00 87 1015.2
20260902074117 76 238 2.0 4.0 0.00 0.00 0.00 87 1015.3
20260902073612 76 242 3.0 6.0 0.00 0.00 0.00 87 1015.4
20260902073109 76 253 2.0 3.0 0.00 0.00 0.00 87 1015.4
20260902072604 76 249 2.0 4.0 0.00 0.00 0.00 88 1015.5
20260902072101 76 234 1.0 4.0 0.00 0.00 0.00 88 1015.3
20260902071601 76 223 1.0 3.0 0.00 0.00 0.00 88 1015.3
20260902071057 76 202 3.0 3.0 0.00 0.00 0.00 89 1015.5
20260902070552 76 223 2.0 3.0 0.00 0.00 0.00 89 1015.4
20260902070047 76 214 2.0 2.0 0.00 0.00 0.00 90 1015.5
20260902065540 76 236 2.0 2.0 0.00 0.00 0.00 89 1015.2
20260902065036 76 170 2.0 3.0 0.00 0.00 0.00 89 1015.4
20260902064532 76 190 2.0 3.0 0.00 0.00 0.00 89 1015.7
20260902064027 77 206 3.0 4.0 0.00 0.00 0.00 88 1015.5
20260902063526 77 228 4.0 4.0 0.00 0.00 0.00 88 1015.5
20260902063022 77 217 2.0 3.0 0.00 0.00 0.00 88 1015.5
20260902062520 77 214 4.0 4.0 0.00 0.00 0.00 88 1015.8
20260902062016 77 220 2.0 3.0 0.00 0.00 0.00 88 1015.7
20260902061511 77 214 3.0 4.0 0.00 0.00 0.00 88 1015.7
20260902061007 77 229 3.0 6.0 0.00 0.00 0.00 87 1015.6
20260902060503 78 202 4.0 6.0 0.00 0.00 0.00 87 1015.7
20260902055959 78 218 5.0 7.0 0.00 0.00 0.00 87 1015.6
20260902055455 78 232 4.0 6.0 0.00 0.00 0.00 87 1015.8
20260902054950 78 225 2.0 6.0 0.00 0.00 0.00 87 1015.6
20260902054449 78 227 3.0 6.0 0.00 0.00 0.00 87 1015.7
20260902053945 78 227 3.0 6.0 0.00 0.00 0.00 87 1015.5
20260902053440 78 228 4.0 6.0 0.00 0.00 0.00 86 1015.5
20260902052939 78 247 4.0 6.0 0.00 0.00 0.00 86 1015.6
20260902052434 78 236 2.0 4.0 0.00 0.00 0.00 86 1015.6
20260902051931 79 235 2.0 3.0 0.00 0.00 0.00 85 1015.5
20260902051430 79 230 2.0 3.0 0.00 0.00 0.00 85 1015.6
20260902050929 79 237 3.0 3.0 0.00 0.00 0.00 85 1015.4
20260902050429 79 238 5.0 7.0 0.00 0.00 0.00 84 1015.6
20260902045924 79 225 3.0 7.0 0.00 0.00 0.00 84 1015.4
20260902045419 80 237 3.0 7.0 0.00 0.00 0.00 84 1015.4
20260902044916 80 237 5.0 7.0 0.00 0.00 0.00 83 1015.3
20260902044411 80 240 5.0 9.0 0.00 0.00 0.00 83 1015.5
20260902043906 80 244 3.0 8.0 0.00 0.00 0.00 83 1015.5
20260902043401 80 249 7.0 9.0 0.00 0.00 0.00 83 1015.4
20260902042856 80 243 6.0 9.0 0.00 0.00 0.00 83 1015.6
20260902042356 80 260 7.0 9.0 0.00 0.00 0.00 82 1015.3
20260902041851 80 252 7.0 10.0 0.00 0.00 0.00 82 1015.2
20260902041351 80 249 6.0 9.0 0.00 0.00 0.00 82 1015.1
20260902040850 80 228 6.0 7.0 0.00 0.00 0.00 83 1015.2
20260902040345 80 210 4.0 9.0 0.00 0.00 0.00 83 1015.3
20260902035844 80 203 6.0 8.0 0.00 0.00 0.00 84 1015.3
20260902035340 80 241 4.0 6.0 0.00 0.00 0.00 84 1015.5
20260902034838 80 240 3.0 6.0 0.00 0.00 0.00 84 1015.5
20260902034334 80 246 3.0 6.0 0.00 0.00 0.00 84 1015.6
20260902033832 80 221 4.0 4.0 0.00 0.00 0.00 83 1015.5
20260902033327 80 245 4.0 4.0 0.00 0.00 0.00 83 1015.4
20260902032826 80 219 4.0 6.0 0.00 0.00 0.00 83 1015.5
20260902032321 80 237 2.0 3.0 0.00 0.00 0.00 83 1015.5
20260902031821 80 226 4.0 6.0 0.00 0.00 0.00 83 1015.5
20260902031317 80 225 3.0 6.0 0.00 0.00 0.00 83 1015.6
20260902030813 80 225 2.0 7.0 0.00 0.00 0.00 83 1015.6
20260902030307 80 217 3.0 4.0 0.00 0.00 0.00 83 1015.6
20260902025806 80 226 3.0 4.0 0.00 0.00 0.00 83 1015.6
20260902025306 80 173 2.0 4.0 0.00 0.00 0.00 83 1015.7
20260902024756 81 207 2.0 3.0 0.00 0.00 0.00 83 1015.7
20260902024251 81 220 3.0 4.0 0.00 0.00 0.00 82 1015.7
20260902023747 81 223 6.0 8.0 0.00 0.00 0.00 82 1015.7
20260902023243 81 196 3.0 3.0 0.00 0.00 0.00 82 1015.6
20260902022742 81 201 3.0 4.0 0.00 0.00 0.00 82 1015.6
20260902022238 81 201 3.0 4.0 0.00 0.00 0.00 82 1015.4
20260902021733 81 190 3.0 6.0 0.00 0.00 0.00 82 1015.8
20260902021233 81 208 4.0 4.0 0.00 0.00 0.00 82 1015.7
20260902020729 81 194 3.0 3.0 0.00 0.00 0.00 82 1015.2
20260902020225 81 189 3.0 4.0 0.00 0.00 0.00 81 1015.4
20260902015720 81 215 4.0 4.0 0.00 0.00 0.00 82 1015.5
20260902015217 81 216 3.0 4.0 0.00 0.00 0.00 82 1015.3
20260902014712 81 204 4.0 4.0 0.00 0.00 0.00 81 1015.3
20260902014208 81 192 3.0 3.0 0.00 0.00 0.00 82 1015.2
20260902013706 81 194 2.0 3.0 0.00 0.00 0.00 82 1015.5
20260902013202 81 186 3.0 3.0 0.00 0.00 0.00 82 1015.3
20260902012657 82 180 2.0 3.0 0.00 0.00 0.00 81 1015.3
20260902012153 82 182 2.0 3.0 0.00 0.00 0.00 80 1015.1
20260902011649 82 193 3.0 3.0 0.00 0.00 0.00 79 1015.1
20260902011148 82 189 3.0 3.0 0.00 0.00 0.00 79 1014.9
20260902010648 82 193 3.0 3.0 0.00 0.00 0.00 79 1015.0
20260902010144 82 193 3.0 3.0 0.00 0.00 0.00 79 1014.8
20260902005641 83 201 3.0 4.0 0.00 0.00 0.00 79 1014.9
20260902005138 83 192 4.0 4.0 0.00 0.00 0.00 78 1015.0
20260902004637 83 188 3.0 3.0 0.00 0.00 0.00 78 1014.8
20260902004132 83 179 2.0 3.0 0.00 0.00 0.00 78 1014.5
20260902003628 83 193 3.0 4.0 0.00 0.00 0.00 77 1014.9
20260902003123 84 191 3.0 3.0 0.00 0.00 0.00 77 1014.7
20260902002618 84 173 3.0 3.0 0.00 0.00 0.00 76 1014.9
20260902002113 84 169 1.0 2.0 0.00 0.00 0.00 75 1014.8
20260902001608 85 170 2.0 2.0 0.00 0.00 0.00 74 1015.0
20260902001103 85 176 2.0 2.0 0.00 0.00 0.00 74 1014.9
20260902000558 85 188 3.0 3.0 0.00 0.00 0.00 74 1014.9
20260902000053 86 193 2.0 3.0 0.00 0.00 0.00 73 1015.0
20260901235547 86 187 3.0 4.0 0.00 0.00 0.00 72 1015.0
20260901235043 87 200 2.0 3.0 0.00 0.00 0.00 71 1015.0
20260901234542 87 223 3.0 4.0 0.00 0.00 0.00 70 1015.1
20260901234037 87 210 2.0 6.0 0.00 0.00 0.00 71 1015.1
20260901233536 87 188 3.0 3.0 0.00 0.00 0.00 71 1015.2
20260901233034 88 196 3.0 4.0 0.00 0.00 0.00 71 1015.3
20260901232528 88 193 4.0 4.0 0.00 0.00 0.00 71 1015.2
20260901232024 89 189 2.0 3.0 0.00 0.00 0.00 70 1015.2
20260901231520 89 216 3.0 4.0 0.00 0.00 0.00 67 1015.4
20260901231016 89 195 3.0 4.0 0.00 0.00 0.00 67 1015.3
20260901230515 89 221 3.0 4.0 0.00 0.00 0.00 67 1015.3
20260901230011 90 214 2.0 4.0 0.00 0.00 0.00 67 1015.2
20260901225506 90 186 1.0 3.0 0.00 0.00 0.00 65 1015.3
20260901225000 90 222 3.0 4.0 0.00 0.00 0.00 65 1015.3
20260901224456 90 228 4.0 7.0 0.00 0.00 0.00 64 1015.3
20260901223952 90 229 4.0 7.0 0.00 0.00 0.00 64 1015.1
20260901223448 90 238 5.0 6.0 0.00 0.00 0.00 64 1015.3
20260901222943 90 230 4.0 4.0 0.00 0.00 0.00 65 1015.0
20260901222439 90 243 5.0 7.0 0.00 0.00 0.00 64 1015.1
20260901221935 90 211 3.0 7.0 0.00 0.00 0.00 66 1015.1
20260901221431 91 203 5.0 7.0 0.00 0.00 0.00 65 1015.2